Flag Weather past 2 weeks in Trieste, Italy

Now
58 °F

Scattered clouds.


Feels Like: 58 °F
Forecast: 53 / 57 °F
Wind: 6 mph from Northeast

Location: Trieste

Current Time: Nov 29, 2014 at 9:50:55 AM

Latest Report: Nov 29, 2014 at 9:00 AM


Visibility: 13 mi

Pressure: 29.96 "Hg

Humidity: 88%

Dew point: 55 °F

Location of TriesteLocation

Historic Weather in Trieste — Graph

°F

Trieste temperature yesterday

Maximum temperature yesterday: 60 °F (at 3:00 PM)
Minimum temperature yesterday: 52 °F (at 12:00 AM)
Average temperature yesterday: 56 °F

Past Weeks' High & Low Weather Summary

 TemperatureHumidityPressure
High70 °F (Nov 16, 12:00 PM)98% (Nov 27, 9:00 PM)30.33 "Hg (Nov 27, 9:00 PM)
Low44 °F (Nov 24, 7:00 AM)46% (Nov 19, 12:00 PM)29.59 "Hg (Nov 18, 2:00 AM)
Average53 °F75%30.02 "Hg
* Reported Nov 14 8:00 AM — Nov 29 8:00 AM, Trieste, Weather by CustomWeather, © 2014

Note: Actual official high and low records may vary slightly from our data, if they occured in-between our weather recording intervals... More about our weather records

Advertising

Trieste weather history for previous 24 hours

 ConditionsComfort  
Time TempWeatherWind HumidityBarometerVisibility
8:00 AM
Nov 29
57 °FPassing clouds.No wind91%29.96 "Hg12 mi
7:00 AM58 °FOvercast.8 mph79%29.96 "Hg12 mi
6:00 AM58 °FDrizzle. Overcast.8 mph83%29.96 "Hg12 mi
5:00 AM59 °FOvercast.3 mph88%29.96 "Hg12 mi
2:00 AM60 °FOvercast.2 mph85%29.98 "Hg12 mi
1:00 AM58 °FOvercast.2 mph92%29.98 "Hg12 mi
12:00 AM58 °FOvercast.1 mph92%29.98 "Hg12 mi
11:00 PM
Nov 28
58 °FOvercast.2 mph90%29.98 "Hg12 mi
10:00 PM60 °FOvercast.1 mph80%29.98 "Hg12 mi
9:00 PM58 °FOvercast.No wind85%29.97 "Hg12 mi
8:00 PM59 °FLight rain. Overcast.No wind84%29.97 "Hg12 mi
7:00 PM58 °FLight rain. Overcast.2 mph90%29.96 "Hg12 mi
6:00 PM59 °FLight rain. Overcast.1 mph89%29.97 "Hg6 mi
5:00 PM59 °FPassing clouds.1 mph88%29.96 "Hg6 mi
4:00 PM59 °FPartly sunny.No wind90%29.96 "Hg6 mi
3:00 PM60 °FOvercast.1 mph86%29.95 "Hg6 mi
2:00 PM59 °FLight rain. Overcast.No wind87%29.96 "Hg6 mi
1:00 PM59 °FOvercast.No wind88%29.96 "Hg6 mi
12:00 PM58 °FOvercast.No wind90%29.96 "Hg6 mi
11:00 AM57 °FOvercast.No wind94%29.98 "Hg6 mi
10:00 AM55 °FOvercast.1 mph94%29.97 "Hg6 mi
9:00 AM55 °FLight rain. Overcast.No wind94%29.96 "Hg6 mi
Weather by CustomWeather, © 2014

See weather overviewHow to use our weather pages